Weather in Zarech'ye

Russia / Tver Oblast     57°12′06″N   33°00′21″E
temp.,
°C
wind,
m/s
gust,
m/s
humid.,
%
clouds,
%
prec.,
mm/h
press.,
hPa
HPBL,
m
14 may, fri
fri1400:00+8sse310970 0.0 1013365
03:00+6sse289820 0.0 1014225
06:00+7sse210935 0.0 1014292
09:00+12sse41068100 0.0 1014726
12:00+16sse585781 0.0 10141122
15:00+17sse475475 0.0 10131402
18:00+16se376215 0.0 1011662
21:00+12ese25885 0.0 101096
15 may, sat
sat1500:00+10e2994100 0.0 1010176
03:00+11ese2898100 0.3 1008239
06:00+12ese2799100 1.3 1007448
09:00+13se3794100 2.1 1007477
12:00+16s368464 0.4 1007828
15:00+19s466233 1.4 10051384
18:00+16s47839 2.8 1005784
21:00+12s310955 4.6 1005287
16 may, sun
sun1600:00+10s259882 0.0 1006117
03:00+11s3996100 0.0 1006262
06:00+11ssw389889 0.0 1007338
09:00+13sw3691100 0.0 1009478
12:00+14wsw3582100 0.0 1010768
15:00+20wsw454196 0.0 10101883
18:00+20w344810 0.0 10101762
21:00+13nw017427 0.0 101111
17 may, mon
mon1700:00+11sse2286100 0.0 101238
03:00+10sse23960 0.0 101363
06:00+11sse27934 0.0 1013176
09:00+17se366899 0.0 1013652
12:00+21sse4752100 0.0 10111544
15:00+23se4745100 0.0 10101969
18:00+20ese4964100 0.0 10081118
21:00+17e51488100 2.1 1005489
18 may, tue
tue1800:00+16se51591100 1.6 1004700
03:00+16sse51396100 4.3 1003671
06:00+15wsw2596100 0.6 1004428
09:00+14wnw2391100 1.1 1005372
12:00+13wnw2397100 1.1 1006245
15:00+14n1288100 1.6 1006374
18:00+16ne228188 0.0 1005549
21:00+13nne1194100 0.1 100520